Location: Charlottesville
(38.0290°N, 78.4770°W)
Time: 05:37:55
(UTC-04:00)

OTV 5 (USA 277) - Pass Details

Date: 14 October 2017
Orbit: 404 x 417 km, 43.0° (Epoch: 07 September)

Event Time Altitude Azimuth Distance (km) Brightness Sun altitude
Rises 21:10:01 0° 290° (WNW) 2,355 ? -30.7°
Reaches altitude 10° 21:12:14 10° 299° (WNW) 1,491 ? -31.1°
Enters shadow 21:12:30 12° 300° (WNW) 1,393 ? -31.2°
